| time (UTC) | temp C | wind direction | speed KPH | gust KPH | rain 1hr cm | rain 24hr cm | rain mn cm | humidity % | barometer mb |
| 20260504081551 | 8 | 360 | 20.9 | 32.2 | 0.00 | 0.00 | 0.00 | 52 | 1015.7 |
| 20260504044539 | 13 | 32 | 37.0 | 46.7 | 0.00 | 0.00 | 0.00 | 37 | 1010.8 |
| 20260504043053 | 13 | 360 | 16.1 | 24.1 | 0.00 | 0.00 | 0.00 | 37 | 1010.2 |
| 20260504041550 | 13 | 360 | 17.7 | 24.1 | 0.00 | 0.00 | 0.00 | 37 | 1009.8 |
| 20260504040053 | 14 | 23 | 17.7 | 30.6 | 0.00 | 0.00 | 0.00 | 35 | 1009.3 |
| 20260504034550 | 14 | 360 | 17.7 | 25.7 | 0.00 | 0.00 | 0.00 | 35 | 1009.1 |
| 20260504033051 | 15 | 360 | 17.7 | 25.7 | 0.00 | 0.00 | 0.00 | 34 | 1008.8 |
| 20260504031548 | 15 | 55 | 14.5 | 22.5 | 0.00 | 0.00 | 0.00 | 32 | 1008.5 |
| 20260504030053 | 16 | 34 | 16.1 | 22.5 | 0.00 | 0.00 | 0.00 | 29 | 1008.4 |
| 20260504024604 | 16 | 43 | 12.9 | 20.9 | 0.00 | 0.00 | 0.00 | 27 | 1008.2 |
| 20260504023048 | 17 | 360 | 9.7 | 14.5 | 0.00 | 0.00 | 0.00 | 22 | 1008.0 |
| 20260504021552 | 18 | 360 | 14.5 | 17.7 | 0.00 | 0.00 | 0.00 | 21 | 1008.0 |
| 20260504020051 | 20 | 360 | 16.1 | 22.5 | 0.00 | 0.00 | 0.00 | 20 | 1008.1 |
| 20260504014603 | 21 | 360 | 17.7 | 24.1 | 0.00 | 0.00 | 0.00 | 19 | 1008.0 |
| 20260504013054 | 21 | 9 | 20.9 | 29.0 | 0.00 | 0.00 | 0.00 | 18 | 1008.0 |
| 20260504011551 | 22 | 5 | 17.7 | 25.7 | 0.00 | 0.00 | 0.00 | 18 | 1008.2 |
| 20260504004551 | 22 | 344 | 25.7 | 33.8 | 0.00 | 0.00 | 0.00 | 17 | 1008.2 |
| 20260504003052 | 23 | 346 | 24.1 | 30.6 | 0.00 | 0.00 | 0.00 | 17 | 1008.2 |
| 20260504001554 | 23 | 319 | 25.7 | 37.0 | 0.00 | 0.00 | 0.00 | 16 | 1008.6 |
| 20260504000138 | 23 | 318 | 17.7 | 35.4 | 0.00 | 0.00 | 0.00 | 16 | 1008.7 |
| 20260503234554 | 23 | 352 | 24.1 | 29.0 | 0.00 | 0.00 | 0.00 | 16 | 1008.5 |
| 20260503233044 | 23 | 343 | 22.5 | 33.8 | 0.00 | 0.00 | 0.00 | 16 | 1008.9 |
| 20260503231552 | 23 | 316 | 20.9 | 35.4 | 0.00 | 0.00 | 0.00 | 16 | 1009.1 |
| 20260503230055 | 23 | 292 | 12.9 | 29.0 | 0.00 | 0.00 | 0.00 | 16 | 1009.1 |
| 20260503224547 | 23 | 299 | 22.5 | 35.4 | 0.00 | 0.00 | 0.00 | 16 | 1009.1 |
| 20260503223048 | 23 | 348 | 20.9 | 38.6 | 0.00 | 0.00 | 0.00 | 16 | 1009.4 |
| 20260503221554 | 23 | 334 | 20.9 | 32.2 | 0.00 | 0.00 | 0.00 | 16 | 1009.5 |
| 20260503220051 | 23 | 342 | 19.3 | 33.8 | 0.00 | 0.00 | 0.00 | 17 | 1009.6 |
| 20260503214548 | 22 | 294 | 9.7 | 35.4 | 0.00 | 0.00 | 0.00 | 17 | 1009.9 |
| 20260503213048 | 23 | 337 | 20.9 | 32.2 | 0.00 | 0.00 | 0.00 | 16 | 1010.0 |
| 20260503211602 | 23 | 321 | 24.1 | 37.0 | 0.00 | 0.00 | 0.00 | 15 | 1010.4 |
| 20260503210053 | 23 | 300 | 27.4 | 37.0 | 0.00 | 0.00 | 0.00 | 16 | 1010.4 |
| 20260503204546 | 22 | 281 | 24.1 | 37.0 | 0.00 | 0.00 | 0.00 | 17 | 1010.7 |
| 20260503203100 | 22 | 305 | 25.7 | 40.2 | 0.00 | 0.00 | 0.00 | 17 | 1010.9 |
| 20260503201549 | 22 | 257 | 19.3 | 35.4 | 0.00 | 0.00 | 0.00 | 18 | 1011.2 |
| 20260503200055 | 22 | 306 | 11.3 | 35.4 | 0.00 | 0.00 | 0.00 | 17 | 1011.1 |
| 20260503194555 | 22 | 306 | 17.7 | 30.6 | 0.00 | 0.00 | 0.00 | 18 | 1011.3 |
| 20260503193050 | 22 | 317 | 19.3 | 27.4 | 0.00 | 0.00 | 0.00 | 17 | 1011.4 |
| 20260503191552 | 21 | 278 | 9.7 | 29.0 | 0.00 | 0.00 | 0.00 | 19 | 1011.7 |
| 20260503190053 | 22 | 265 | 20.9 | 33.8 | 0.00 | 0.00 | 0.00 | 18 | 1011.9 |
| 20260503184543 | 21 | 311 | 24.1 | 30.6 | 0.00 | 0.00 | 0.00 | 19 | 1012.0 |
| 20260503183055 | 21 | 242 | 14.5 | 32.2 | 0.00 | 0.00 | 0.00 | 22 | 1012.3 |
| 20260503181601 | 21 | 293 | 20.9 | 35.4 | 0.00 | 0.00 | 0.00 | 22 | 1012.5 |
| 20260503180103 | 21 | 280 | 22.5 | 29.0 | 0.00 | 0.00 | 0.00 | 23 | 1012.9 |
| 20260503174553 | 20 | 275 | 17.7 | 27.4 | 0.00 | 0.00 | 0.00 | 25 | 1012.9 |
| 20260503173058 | 20 | 295 | 19.3 | 40.2 | 0.00 | 0.00 | 0.00 | 27 | 1013.1 |
| 20260503171554 | 20 | 267 | 14.5 | 29.0 | 0.00 | 0.00 | 0.00 | 32 | 1013.4 |
| 20260503160110 | 15 | 232 | 14.5 | 25.7 | 0.00 | 0.00 | 0.00 | 49 | 1013.6 |